14:48
Airports
History
Links
Donate
Help keep this website running!
PayPal
Bitcoin
This page is community maintained. The information is intended for PC simulator navigation or reference.
Always use approved charts for navigation.
SNCW
CENTRO DE LANCAMENTO DE ALCANTARA
CENTRO DE LANCAMENTO DE ALCANTARA (SNCW)
Alcântara, Maranhão, Brazil (65)
(U)
Lat/Lng:2° 22' 22.75" S / 44° 23' 47.1" W
-2.372986 / -44.396417
Elevation:148'ft / 45mMSL
ID / ICAO:SNCW
Runways:1
Longest:(09-27) 2,591.0m / 8,501ft Asphalt
Distance To
Airport ID:
Nearby WeatherUpdated 08-22-17 14:00 GMT
Nearby weather at SBSL, Marechal Cunha Machado located 18.5 nautical miles from SNCW
Altimeter: 29.94
Visibility: 6.2 statute miles
Wind: 10 knots (050°)
Temp: 30°c 86°f
Humidity: 66.2%

METAR: SBSL 221400Z 05010KT 9999 BKN020 30/23 Q1014

(Powered by phpweather)
Runway 09 / 27
Dimensions:2591 x 45.1m 8501' x 148'ft
Surface:Asphalt
Edge Lights:Low intensity
Runway 09 [A]Runway 27 [B]
Heading:072°TH 252°TH
Lat:
Lng:
2° 22' 35.3"S
44° 24' 27.3"W
2° 22' 10.2"S
44° 23' 6.9"W
User Notes and Comments
Google Map
Nearby Airports
(C) Marechal Cunha Machado 18.5 NM
SBSL (WX) SE 143°
(U) CAVU - Clube de Aviacao Ultraleve 19.3 NM
SIPB ESE 104°
(C) CORONEL ALEXANDRE RAPOSO 21.6 NM
SNOZ ESE 118°
(C) Guimaraes 24.2 NM
SNGM NW 321°
4 Antonio Guerreiro 25.3 NM
SNYW NW 316°
4 Sao Bento 38.5 NM
SNSB SW 233°
(C) Pinheiro 49.5 NM
SNYE W 261°
VFR Chart
Flight Planning at SkyVector.com